McConnell AFB, KS

2:23 PM CST on December 15, 2019 (GMT -0600)
McConnell Air Force Base

Weather History for KIAB - June, 2019

Change the Weather History Date:

Wednesday, June 12, 2019

  Actual Average Record
Temperature  
Mean Temperature 68 °F -  
Max Temperature 77 °F 81 °F 97 °F (2013)
Min Temperature 60 °F 61 °F 48 °F (1998)
Cooling Degree Days 3    
Growing Degree Days 18 (Base 50)    
Moisture  
Dew Point 56 °F    
Average Humidity 69    
Maximum Humidity 100    
Minimum Humidity 37    
Precipitation  
Precipitation 0.34 in - - ()
Sea Level Pressure  
Sea Level Pressure 30.03 in    
Wind  
Wind Speed 10 mph (North)    
Max Wind Speed 20 mph    
Max Gust Speed 26 mph    
Visibility 9 miles    
Events Rain , Thunderstorm    
Averages and records for this station are not official NWS values.
T = Trace of Precipitation, MM = Missing Value Source: NWS Daily Summary

Daily Weather History Graph

Daily Weather History Graph

Search for Another Location

Airport or City:

Astronomy

Jun. 12, 2019 Rise Set
Actual Time 6:07 AM CDT 8:50 PM CDT
Civil Twilight 5:35 AM CDT 9:22 PM CDT
Nautical Twilight 4:57 AM CDT 10:01 PM CDT
Astronomical Twilight 4:13 AM CDT 10:44 PM CDT
Moon 4:05 PM CDT (6/12) 3:15 AM CDT (6/12)
Length of Visible Light 15h 46m
Length of Day
14h 43m
Waxing Gibbous, 77% of the Moon is Illuminated
Jun 12
Waxing Gibbous
Jun 17
Full
Jun 25
Last Quarter
Jul 2
New
Jul 9
First Quarter

Hourly Weather History & Observations

Time (CDT) Temp. Dew Point Humidity Pressure Visibility Wind Dir Wind Speed Gust Speed Precip Events Conditions
12:56 AM 63.9 °F 59.0 °F 84% 29.99 in 10.0 mi ENE 11.5 mph - 0.03 in Rain Light Rain
12:57 AM 64.4 °F 59.0 °F 83% 29.98 in 10.0 mi ENE 11.5 mph - N/A   Overcast
1:01 AM 64.4 °F 59.0 °F 83% 29.99 in 10.0 mi ENE 10.4 mph - N/A Thunderstorm Thunderstorm
1:13 AM 64.4 °F 59.0 °F 83% 30.01 in 10.0 mi NE 6.9 mph - N/A Rain , Thunderstorm Light Thunderstorms and Rain
1:30 AM 64.4 °F 59.0 °F 83% 30.02 in 2.5 mi WSW 4.6 mph - N/A Rain , Thunderstorm Heavy Thunderstorms and Rain
1:32 AM 62.6 °F 59.0 °F 88% 30.02 in 1.9 mi Calm Calm - N/A Rain , Thunderstorm Heavy Thunderstorms and Rain
1:37 AM 62.6 °F 59.0 °F 88% 30.01 in 1.9 mi SE 5.8 mph - N/A Rain , Thunderstorm Heavy Thunderstorms and Rain
1:38 AM 62.6 °F 59.0 °F 88% 30.01 in 2.2 mi SE 6.9 mph - N/A Rain , Thunderstorm Heavy Thunderstorms and Rain
1:40 AM 62.6 °F 59.0 °F 88% 30.01 in 3.0 mi SE 8.1 mph - N/A Rain , Thunderstorm Light Thunderstorms and Rain
1:43 AM 62.6 °F 59.0 °F 88% 30.01 in 5.0 mi SE 8.1 mph - N/A Rain Light Rain
1:56 AM 62.6 °F 59.5 °F 90% 29.98 in 10.0 mi SE 12.7 mph - 0.24 in Rain Light Rain
1:58 AM 62.6 °F 59.0 °F 88% 29.98 in 10.0 mi SE 12.7 mph - N/A   Overcast
2:56 AM 63.0 °F 60.3 °F 91% 29.97 in 10.0 mi Calm Calm - 0.00 in   Overcast
2:57 AM 62.6 °F 60.8 °F 94% 29.98 in 10.0 mi Calm Calm - N/A Rain Light Rain
3:14 AM 62.6 °F 60.8 °F 94% 30.00 in 10.0 mi NNW 13.8 mph - N/A Rain , Thunderstorm Rain
3:36 AM 62.6 °F 60.8 °F 94% 29.98 in 10.0 mi ENE 5.8 mph - N/A   Mostly Cloudy
3:56 AM 62.1 °F 61.2 °F 97% 29.97 in 10.0 mi East 4.6 mph - 0.07 in   Mostly Cloudy
4:14 AM 60.8 °F 60.8 °F 100% 29.98 in 10.0 mi NNE 5.8 mph - N/A   Scattered Clouds
4:56 AM 60.4 °F 60.1 °F 99% 29.98 in 10.0 mi Calm Calm - N/A   Partly Cloudy
5:56 AM 60.6 °F 60.3 °F 99% 30.00 in 10.0 mi Calm Calm - N/A   Scattered Clouds
6:56 AM 60.8 °F 60.4 °F 99% 30.01 in 10.0 mi West 3.5 mph - N/A   Clear
7:56 AM 63.1 °F 61.3 °F 94% 30.02 in 10.0 mi WNW 9.2 mph - N/A   Clear
8:56 AM 64.2 °F 57.6 °F 79% 30.04 in 10.0 mi NNW 9.2 mph - N/A   Clear
9:56 AM 67.6 °F 56.3 °F 67% 30.06 in 10.0 mi NW 9.2 mph - N/A   Clear
10:56 AM 70.5 °F 55.4 °F 59% 30.07 in 10.0 mi North 10.4 mph 17.3 mph N/A   Clear
11:55 AM 71.6 °F 57.2 °F 60% 30.07 in 10.0 mi North 11.5 mph 18.4 mph N/A   Clear
11:56 AM 71.6 °F 57.0 °F 60% 30.07 in 10.0 mi North 11.5 mph 18.4 mph N/A   Clear
12:56 PM 73.6 °F 54.3 °F 51% 30.06 in 10.0 mi NNW 13.8 mph 23.0 mph N/A   Clear
1:22 PM 73.4 °F 53.6 °F 50% 30.06 in 10.0 mi North 17.3 mph - N/A   Scattered Clouds
1:28 PM 73.4 °F 51.8 °F 47% 30.06 in 10.0 mi NW 17.3 mph - N/A   Scattered Clouds
1:49 PM 73.4 °F 53.6 °F 50% 30.08 in 10.0 mi North 15.0 mph 23.0 mph N/A   Scattered Clouds
1:56 PM 72.3 °F 52.0 °F 49% 30.06 in 10.0 mi NW 16.1 mph 24.2 mph N/A   Mostly Cloudy
2:15 PM 75.2 °F 53.6 °F 47% 30.06 in 10.0 mi North 15.0 mph 24.2 mph N/A   Scattered Clouds
2:25 PM 75.2 °F 51.8 °F 44% 30.05 in 10.0 mi North 18.4 mph 21.9 mph N/A   Mostly Cloudy
2:56 PM 75.9 °F 51.1 °F 42% 30.04 in 10.0 mi NW 16.1 mph 23.0 mph N/A   Scattered Clouds
3:00 PM 75.2 °F 51.8 °F 44% 30.05 in 10.0 mi North 16.1 mph 23.0 mph N/A   Scattered Clouds
3:46 PM 75.2 °F 51.8 °F 44% 30.04 in 10.0 mi NW 17.3 mph 24.2 mph N/A   Scattered Clouds
3:54 PM 75.2 °F 51.8 °F 44% 30.04 in 10.0 mi North 15.0 mph - N/A   Mostly Cloudy
3:56 PM 75.0 °F 50.9 °F 43% 30.04 in 10.0 mi North 15.0 mph - N/A   Mostly Cloudy
4:56 PM 75.7 °F 48.4 °F 38% 30.04 in 10.0 mi NNW 19.6 mph 26.5 mph N/A   Scattered Clouds
5:56 PM 76.5 °F 48.2 °F 37% 30.04 in 10.0 mi NNW 17.3 mph 21.9 mph N/A   Partly Cloudy
6:56 PM 75.2 °F 47.8 °F 38% 30.04 in 10.0 mi North 13.8 mph - N/A   Clear
7:56 PM 72.7 °F 49.5 °F 44% 30.06 in 10.0 mi NNW 16.1 mph 21.9 mph N/A   Partly Cloudy
8:56 PM 69.1 °F 46.8 °F 45% 30.07 in 10.0 mi North 10.4 mph - N/A   Clear
9:56 PM 65.8 °F 48.2 °F 53% 30.09 in 10.0 mi North 6.9 mph - N/A   Clear
11:56 PM 61.9 °F 44.6 °F 53% 30.12 in 10.0 mi NNE 9.2 mph - N/A   Clear